Showing default

WARATAH SEED-1, 60469

Orbit data source: Space-Track

WARATAH SEED-1, 60469 is a payload satellite owned by U Sydney (AU) in SSO that was launched on Fri, 16 Aug 2024 UTC via an FALCON 9 launch vehicle from the Air Force Western Test Range (AFWTR). Payload-class satellites include a variety of spacecraft equipped with specific instruments for various scientific and technological missions. These include communications satellites like Starlink; space stations such as the ISS; scientific satellites like the Hubble; Earth observation satellites from companies like Planet Labs, Umbra, and HawkEye 360; GPS; miniature CubeSats for education and research; and military/defense satellites.

Loading next visibility...
Identifier
60469, 2024-149B
Orbit
SSO
Country
Flag of AUAU / AUS
Related business
Manufacturer
U Sydney
Mission
Operational Amateur Technology
Bus & Motor
CUBESAT 6U, Unknown motor
Mass
10 kg wet, 10 kg dry
Launch date (UTC)
2024-08-16 (2 years ago)
Launch vehicle
FALCON 9
Launch site
Air Force Western Test Range (AFWTR)
Object type
Payload
Rocket body
Debris
Shape & HBR
Box, 0.2 m
Radar Cross Section
0.080 m², Medium (>0.1 m² and < 1m²)

Expand to show TLE details & history
Last TLE update: 5 hours ago

TLE from 5 hours ago
0 WARATAH SEED-1
1 60469U 24149B   26220.20893443  .00006265  00000-0  17440-3 0  9998
2 60469  97.3665 300.8704 0002840  72.7571 287.3984 15.37174622110100
Epoch: 2026-08-08T05:00Z
TLE epoch observation values (Epoch: 2026-08-08T05:00:51.934Z)
Latitude
-0.00006°
Longitude
-91.06955°
Altitude
457.004 km
Speed
7.639 km/s
True Right ascension
20h 03m 28s
True Declination
0° 00' 00"
Sunlit
Object was in full shadow at epoch
Visualization orbit readout
Latitude
Unknown
Longitude
Unknown
Altitude
Unknown
Speed
Unknown
Apparent Right ascension
Unknown
Apparent Declination
Unknown
Sunlit
N/A
Visualization observer readout
Local Sidereal Time
23:49:48
Azimuth
Unknown
Elevation
Unknown
Doppler factor
Unknown
Orbital elements
Apogee altitude
453.35 km
Perigee altitude
449.471 km
Semi-major axis
6,829.547 km
Eccentricity
0.00028
Inclination
97.3665°
RAAN
300.8704°
Arg. of periapsis
72.7571°
True anomaly
287.36734°
Mean anomaly
287.3984°
Eccentric anomaly
287.38287°
Mean motion
3.84552 °/min
Orbital period
93.62 mins
BSTAR
0.0001744
Loading maneuver chart data...
Computing Atmospheric mass density...
Loading historical data...
Loading historical data...
Loading historical data...
Loading historical data...
Loading historical data...
Loading historical data...
Loading historical data...

Documentation

Showing up to 5 results
|